CSIM
1 43793U 18099AM  24321.76990210  .00046910  00000-0  16284-2 0  9992
2 43793  97.5139  26.2802 0009375 138.1192 222.0767 15.29585152325976
JO-97
1 43803U 18099AX  24321.66714699  .00015457  00000-0  87290-3 0  9996
2 43803  97.4995  17.3114 0009525 133.5843 226.6180 15.13172964325709
Suomi 100
1 43804U 18099AY  24321.68839236  .00014186  00000-0  83164-3 0  9998
2 43804  97.5068  17.0396 0015031 134.9723 225.2728 15.11790029325677
ISAT
1 43879U 18111D   24321.45851323  .00023373  00000-0  11435-2 0  9990
2 43879  97.6063 227.0013 0010549 180.3432 179.7796 15.18155822320435
UWE-4
1 43880U 18111E   24321.70916149  .00019172  00000-0  99007-3 0  9992
2 43880  97.5994 226.8146 0013378 194.8593 165.2248 15.16272140320482
Sparrow
1 43881U 18111F   24321.70036828  .00023690  00000-0  11360-2 0  9995
2 43881  97.6176 229.4764 0006402 223.0387 137.0347 15.18881989320562
Prox-1
1 44339U 19036A   24321.37287249  .00018572  00000-0  28126-2 0  9990
2 44339  24.0000 322.4855 0007809 258.0775 101.8845 14.72612506287747
SONATE
1 44400U 19038Q   24321.81837682  .00044934  00000-0  87610-3 0  9997
2 44400  97.7131 324.0413 0009377 283.4230  76.5974 15.47348482297560
Taurus 1
1 44530U 19059C   24321.79394443  .00011171  00000-0  23209-2 0  9994
2 44530  98.5892  86.6028 0010368 303.6860  56.3350 14.60245078273992
Duchifat 3
1 44854U 19089C   24321.80034000  .00031033  00000-0  11583-2 0  9999
2 44854  36.9511 196.5454 0012476 301.3207  58.6322 15.26478335271440
TO-108
1 44881U 19093C   24321.74701300  .00002198  00000-0  26560-3 0  9993
2 44881  97.8160  35.5642 0014104 178.0514 182.0759 14.84680003265671
FloripaSat 1
1 44885U 19093G   24321.73815553  .00009005  00000-0  84668-3 0  9999
2 44885  97.8330  43.4327 0011739 165.5995 194.5561 14.94080256266111
RS-44
1 44909U 19096E   24321.64331908  .00000042  00000-0  11959-3 0  9991
2 44909  82.5239   3.4692 0218363  54.9648 307.1728 12.79736011228524
UPMSat 2
1 46276U 20061E   24321.44812510  .00037279  00000-0  80338-3 0  9994
2 46276  97.2778  26.7008 0000526  12.8560 347.2702 15.44499354233589
AmicalSat
1 46287U 20061R   24321.16184261  .00214028  00000-0  20847-2 0  9997
2 46287  97.3245  30.5326 0001264 315.9328  44.1831 15.65565376233066
SALSAT
1 46495U 20068K   24321.19034620  .00015831  00000-0  79246-3 0  9990
2 46495  97.8366 284.8816 0014019 143.4427 216.7765 15.17408853227328
IDEASSat
1 47458U 21006AX  24321.72383457  .00368461  00000-0  16866-2 0  9995
2 47458  97.2992  24.5816 0002606 328.9569  31.1546 15.82759944212290
CubeSX-Sirius-HSE
1 47951U 21022V   24321.77607348  .00046599  00000-0  11795-2 0  9995
2 47951  97.4409 220.8055 0008895 336.0294  24.0537 15.39570089201922
CubeSX-HSE
1 47952U 21022W   24321.77665753  .00048857  00000-0  12242-2 0  9997
2 47952  97.4406 220.9405 0008795 334.1400  25.9405 15.39868940201938
KSU-Cubesat
1 47954U 21022Y   24321.70859569  .00077205  00000-0  14936-2 0  9993
2 47954  97.4410 223.2583 0006023 334.7530  25.3424 15.47458315201799
GRBAlpha
1 47959U 21022AD  24321.79955811  .00046692  00000-0  11702-2 0  9998
2 47959  97.4409 221.1318 0008730 334.1062  25.9746 15.39873635200762
Orbicraft-Zorkiy
1 47960U 21022AE  24321.82655985  .00067516  00000-0  14369-2 0  9993
2 47960  97.4452 223.2137 0007098 336.5875  23.5049 15.44700230201563
TUBIN
1 48900U 21059X   24321.79604245  .00031224  00000-0  77471-3 0  9998
2 48900  97.6615 112.0462 0005510 267.7459  92.3155 15.40294485188323
LEDSAT
1 49069U 21073D   24321.77807526  .00035166  00000-0  10030-2 0  9992
2 49069  97.4200  32.7345 0015913 101.8001 258.5028 15.35847494179777
CUTE
1 49263U 21088D   24321.47239898  .00045000  00000-0  14585-2 0  9999
2 49263  97.4786  27.3866 0010431 264.5276  95.4775 15.31808206172843
TeikyoSat 4
1 49396U 21102B   24321.16236308  .00003432  00000-0  23935-3 0  9995
2 49396  97.4404   0.8733 0014594 114.1166 246.1589 15.05957194165615
Z-Sat
1 49399U 21102E   24321.78936857  .00006992  00000-0  41731-3 0  9990
2 49399  97.4115   3.5051 0020939  92.6787 267.6840 15.11245382166018
KOSEN 1
1 49402U 21102H   24321.60502523  .00011062  00000-0  58489-3 0  9997
2 49402  97.4034   5.4194 0018915  75.3347 284.9981 15.15482114166190
HO-113
1 50466U 21131B   24321.79281894  .00001218  00000-0  39854-3 0  9993
2 50466  98.5224  46.1516 0004688  42.8398 317.3155 14.40255714151966
IRIS-A
1 51044U 22002BN  24321.46982507  .00053421  00000-0  11246-2 0  9994
2 51044  97.3645  28.4777 0004338 201.9479 158.1585 15.45101226157817
Planetum 1
1 52738U 22057G   24321.42388234  .00619307  15492-3  18939-2 0  9999
2 52738  97.5650  96.6198 0008616 295.9833  64.0553 15.91860396138247
Foresail-1
1 52766U 22057AL  24321.30689403  .00051383  00000-0  10714-2 0  9992
2 52766  97.5974  91.7949 0007950 306.8780  53.1739 15.45369827137820
SNUGLITE 2
1 52899U 22065F   24321.26650639  .00002712  00000-0  54947-3 0  9991
2 52899  98.1407  99.7804 0008232  43.2577 316.9270 14.62037870126470
IO-117
1 53106U 22080B   24317.91823954 -.00000003  00000-0  00000-0 0  9999
2 53106  70.1294 140.8531 0008378  74.0630 286.0952  6.42557820 54828
FO-118
1 54684U 22167C   24321.76548863  .00088971  00000-0  15157-2 0  9998
2 54684  97.6156 112.2242 0008755 313.8910  46.1618 15.51027040107758
SSS-2B
1 56184U 23054G   24321.80368929  .00219570  00000-0  14517-2 0  9999
2 56184  97.3417 223.4561 0004992  67.5493 292.6301 15.74917710 89819
SO-120
1 56992U 23084BU  24321.61225212  .00113933  00000-0  18760-2 0  9995
2 56992  97.5425  84.7447 0008026 213.9371 146.1369 15.51897370 79597
MRC-100
1 56993U 23084BV  24321.61319214  .00187642  00000-0  20996-2 0  9994
2 56993  97.5370  86.1487 0007388 232.5696 127.4889 15.62074975 79694
UmKA 1 (RS40S)
1 57172U 23091G   24321.77216256  .00009649  00000-0  57773-3 0  9995
2 57172  97.5910  12.4389 0014950 324.0746  35.9477 15.11131577 76502
CubeBel-2 (EU11S)
1 57175U 23091K   24321.80095609  .00011785  00000-0  66818-3 0  9993
2 57175  97.5914  12.6962 0013254 336.7244  23.3385 15.13062894 76525
VERONIKA
1 58261U 23174F   24321.76630482  .00042618  00000-0  12968-2 0  9996
2 58261  97.4444  36.1372 0009603  64.8599 295.3639 15.33845668 56981
KAFASAT
1 58317U 23174BP  24321.48095149  .00075192  00000-0  17382-2 0  9990
2 58317  97.4376  37.4622 0007489  34.0505 326.1222 15.42199802 57068
ENSO
1 58470U 23185J   24321.77042687  .00031127  00000-0  95076-3 0  9990
2 58470  97.4069  27.6712 0010884  98.4077 261.8399 15.33781066 53435
EIRSAT-1
1 58472U 23185L   24321.76323213  .00038826  00000-0  11118-2 0  9995
2 58472  97.4062  27.9515 0010169  98.2788 261.9609 15.35777533 53450
SONATE-2
1 59112U 24043Q   24321.62236286  .00020405  00000-0  80516-3 0  9992
2 59112  97.4954  84.6099 0013591 119.5784 240.6810 15.25491818 38981
MO-122
1 60209U 24125G   24321.33893120  .00022845  00000-0  89576-3 0  9991
2 60209  97.3005 170.4693 0023979 145.4146 214.8658 15.25490754 20556
GRBBeta
1 60237U 24128C   24321.63408037  .00006964  00000-0  57857-3 0  9998
2 60237  61.9946  72.4066 0026695   3.8277 356.3011 14.99331268 19437
Curium One
1 60242U 24128H   24321.47052614  .00012016  00000-0  97606-3 0  9993
2 60242  61.9852  73.1220 0026916 353.9365   6.1395 14.99697482 19418
ROBUSTA-3A
1 60243U 24128J   24321.49012351  .00011757  00000-0  96382-3 0  9991
2 60243  61.9916  73.3165 0025008 351.2938   8.7714 14.99400115 19416
CatSat
1 60246U 24125J   24321.16546512  .00016388  00000-0  66244-3 0  9995
2 60246  97.2814 171.1979 0050675 102.0709 258.6213 15.23601495 18639
CosmoGirlSat
1 60953U 98067WT  24321.83696768  .00386280  00000-0  17557-2 0  9992
2 60953  51.6243 271.7964 0008275 148.0342 212.1164 15.82215528 12421
Sakura
1 60954U 98067WU  24321.29592773  .00675403  18952-3  22170-2 0  9997
2 60954  51.6229 273.4171 0008733 143.9989 216.1607 15.89895569 12359
CySat-1
1 61501U 98067WZ  24321.21769874  .00178117  00000-0  18539-2 0  9992
2 61501  51.6339 280.4456 0009809 161.3449 198.7907 15.63414037  6084
DORA
1 61502U 98067XA  24321.60391609  .00762955  00000-0  35991-2 0  9993
2 61502  51.6251 277.0082 0013229 148.6409 211.5384 15.80394601  6154
